Regional Weather Roundup
Issued by NWS

Home | Current Version | Previous Version | Graphics & Text | Print | Product List | Glossary On
Versions: 1 2 3 4 5 6 7 8 9 10 11 12 13 14 15 16 17 18 19 20 21 22 23 24 25 26 27 28 29 30 31 32 33 34 35 36 37 38 39 40 41 42 43 44 45 46 47 48 49 50
000
ASUS43 KLSX 190159
RWRMO

WEATHER SUMMARY FOR MISSOURI
NATIONAL WEATHER SERVICE SPRINGFIELD MO
900 PM CDT FRI APR 18 2014

NOTE: "FAIR" INDICATES FEW OR NO CLOUDS BELOW 12,000 FEET WITH NO
       SIGNIFICANT WEATHER AND/OR OBSTRUCTIONS TO VISIBILITY.
       CURRENT SKY AND/OR WEATHER CONDITIONS ARE NOT AVAILABLE FOR
       CHILLICOTHE AND FARMINGTON.

MOZ001>031-035>038-043-044-053-054-190300-
...NORTHERN AND WESTERN MISSOURI...

CITY           SKY/WX    TMP DP  RH WIND       PRES   REMARKS
KANSAS CTY INT PTCLDY    57  40  52 SE8       30.16R
KANSAS C DTWN  CLEAR     63  41  44 SE7       30.15R
LEE`S SUMMIT   CLEAR     62  41  46 SE6       30.16S
ST JOSEPH      PTCLDY    58  38  47 SE8       30.15R
KIRKSVILLE     CLEAR     56  36  47 E6        30.22R

$$
MOZ066>068-077>081-088>096-101>105-190300-
...SOUTHWEST MISSOURI...

CITY           SKY/WX    TMP DP  RH WIND       PRES   REMARKS
SPRINGFIELD    CLEAR     64  40  41 E6        30.16R
JOPLIN         CLEAR     61  42  49 E3        30.15R

$$
MOZ032>034-039>042-045>050-055>058-069>072-190300-
...CENTRAL MISSOURI...

CITY           SKY/WX    TMP DP  RH WIND       PRES   REMARKS
COLUMBIA       CLEAR     60  42  51 E6        30.20R
JEFFERSON CITY CLEAR     58  42  55 CALM      30.19R
ROLLA          CLEAR     57  40  52 E7        30.19R
SEDALIA        CLEAR     61  42  49 E6        30.18S
OSAGE BEACH    CLEAR     61  37  41 E6        30.20R

$$
MOZ051-052-059>065-190300-
...EAST CENTRAL MISSOURI...

CITY           SKY/WX    TMP DP  RH WIND       PRES   REMARKS
ST LOUIS INTL  PTCLDY    62  40  44 E7        30.23R
SPIRIT OF STL  CLEAR     55  42  61 CALM      30.22R
ST CHARLES     CLEAR     58  41  53 NE3       30.22R

$$
MOZ072>076-082>087-097>100-106>115-190300-
...SOUTH CENTRAL AND SOUTHEAST MISSOURI...

CITY           SKY/WX    TMP DP  RH WIND       PRES   REMARKS
CAPE GIRARDEAU CLEAR     59  44  57 NE6       30.19R
FARMINGTON     CLEAR     57  41  54 NE6       30.24R
POPLAR BLUFF   CLEAR     60  51  72 N6        30.18R
WEST PLAINS    PTCLDY    64  40  41 SE7       30.19R

$$



USA.gov is the U.S. government's official web portal to all federal, state and local government web resources and services.